[[{"header":{"parameterUnit":"m.s-1","parameterCategory":1,"la1":30.2991,"la2":30.254,"lo1":-89.0895,"lo2":-89.0444,"dy":0.0017,"dx":0.0017,"nx":28,"ny":28,"refTime":"2025-01-10T09:00:00:Z","depth":0,"parameterNumber":2,"parameterNumberName":"U-component_of_WINDS"},"data":[0,0,0,0,0,0,0,0,0,0,0,0,0,0,0,0,0,0,0,0,0,0,0,0,0,0,0,0,0,0,0,0,0,0,0,0,0,0,0,0,0,0,0,0,0,0,0,0,0,0,0,0,0,0,0,0,0,0,-2.15,-2.15,0,-2.1541,-2.1541,-2.1542,-2.1507,-2.1505,-2.1504,-2.1503,-2.1544,-2.1546,-2.1549,0,0,0,0,0,0,0,0,0,0,0,0,0,-2.139,-2.1392,-2.15,-2.15,-2.1501,-2.1541,-2.1541,-2.1542,-2.1507,-2.1505,-2.1504,-2.1502,-2.1543,-2.1546,-2.1549,0,0,0,0,0,0,0,0,0,0,0,0,0,-2.1435,-2.1393,-2.15,-2.1488,-2.1488,-2.1541,-2.1541,-2.1542,-2.1507,-2.1505,-2.1503,-2.1501,-2.1542,-2.1546,-2.1549,-2.1615,0,0,-2.1561,-2.1562,0,0,0,0,0,0,0,0,-2.1433,-2.1439,-2.149,-2.1489,-2.1489,-2.1517,-2.1518,-2.1567,-2.1508,-2.15,-2.1503,-2.15,-2.1537,-2.1541,-2.1553,-2.1617,-2.1619,-2.1561,-2.1563,-2.1565,-2.1566,0,0,0,0,0,0,0,-2.1429,-2.1437,-2.1516,-2.149,-2.149,-2.1481,-2.1485,-2.1527,-2.153,-2.1501,-2.1498,-2.1503,-2.1536,-2.155,-2.1554,-2.162,-2.1561,-2.1564,-2.1566,-2.1568,-2.1737,-2.174,0,0,0,0,0,0,-2.1428,-2.1435,-2.1515,-2.1517,-2.1455,-2.1484,-2.1489,-2.151,-2.1529,-2.153,-2.1505,-2.1502,-2.1544,-2.1549,-2.1555,-2.1631,-2.1565,-2.1568,-2.157,-2.1735,-2.1738,-2.174,0,0,0,0,0,0,-2.1425,-2.1435,-2.1513,-2.1475,-2.1485,-2.1489,-2.1512,-2.1512,-2.1525,-2.1533,-2.1533,-2.1519,-2.1543,-2.155,-2.16,-2.1632,-2.157,-2.1573,-2.1732,-2.1736,-2.1739,-2.1786,0,0,0,0,0,0,-2.1422,-2.1435,-2.146,-2.1476,-2.1487,-2.1558,-2.1514,-2.1514,-2.1532,-2.1527,-2.1546,-2.1546,-2.1542,-2.1595,-2.1604,-2.1636,-2.1576,-2.1729,-2.1734,-2.1738,-2.1781,-2.1791,-2.1798,0,0,0,0,0,-2.1419,-2.1472,-2.1462,-2.1472,-2.1519,-2.156,-2.1566,-2.156,-2.1535,-2.156,-2.1564,-2.1546,-2.1628,-2.16,-2.161,-2.1644,-2.1727,-2.1733,-2.1738,-2.1778,-2.1789,-2.1798,0,0,0,0,0,0,-2.146,-2.1474,-2.1463,-2.1523,-2.1541,-2.1554,-2.1586,-2.1572,-2.1597,-2.1592,-2.1582,-2.1587,-2.1639,-2.1647,-2.1616,-2.1708,-2.1673,-2.1681,-2.17,-2.1711,-2.1719,-2.1715,-2.1579,0,0,0,0,0,-2.1477,-2.1509,-2.152,-2.1572,-2.1581,-2.1582,-2.16,-2.1593,-2.1611,-2.1618,-2.1626,-2.1644,-2.1673,-2.1693,-2.1721,-2.1783,-2.1785,-2.1811,-2.1819,-2.1826,-2.1832,-2.1863,-2.1874,-2.1757,-2.1757,-2.1757,0,0,-2.1511,-2.1522,-2.1543,-2.1581,-2.1593,-2.1626,-2.1589,-2.1626,-2.165,-2.1624,-2.1671,-2.1678,-2.1697,-2.1752,-2.1777,-2.176,-2.1865,-2.1833,-2.1838,-2.1841,-2.187,-2.1881,-2.189,-2.1761,-2.176,-2.176,0,0,-2.1588,-2.1602,-2.1645,-2.1658,-2.1678,-2.1678,-2.1689,-2.1704,-2.1707,-2.1755,-2.1735,-2.1763,-2.1815,-2.1828,-2.1842,-2.1923,-2.1906,-2.1933,-2.1976,-2.2006,-2.2015,-2.2023,-2.205,-2.206,-2.1939,-2.1939,-2.1939,0,-2.1628,-2.1677,-2.167,-2.1707,-2.1723,-2.1701,-2.1744,-2.1758,-2.1785,-2.1796,-2.1777,-2.184,-2.1851,-2.1908,-2.1928,-2.1941,-2.1951,-2.193,-2.2015,-2.2023,-2.203,-2.2055,-2.2065,-2.1942,-2.1942,-2.1941,-2.1941,0,-2.1723,-2.1758,-2.1791,-2.1817,-2.1837,-2.1878,-2.1875,-2.1896,-2.1887,-2.1889,-2.1936,-2.1949,-2.1978,-2.1991,-2.1984,-2.2047,-2.2036,-2.2016,-2.1981,-2.2044,-2.2067,-2.2077,-2.1946,-2.1945,-2.1944,-2.1943,0,0,-2.1829,-2.1849,-2.1861,-2.1872,-2.1891,-2.1917,-2.1956,-2.1984,-2.2001,-2.2021,-2.2051,-2.2095,-2.2076,-2.2091,-2.2085,-2.2112,-2.2172,-2.2088,-2.2089,-2.2101,-2.224,-2.2253,-2.2264,-2.2162,-2.2164,-2.2165,-2.2237,0,-2.1905,-2.1972,-2.1966,-2.2029,-2.206,-2.2038,-2.2072,-2.2087,-2.2089,-2.2115,-2.2118,-2.2147,-2.2122,-2.213,-2.2156,-2.216,-2.22,-2.2155,-2.2189,-2.219,-2.2183,-2.2277,-2.2292,-2.2359,-2.2247,-2.2248,-2.225,0,-2.2004,-2.2026,-2.2092,-2.2104,-2.2117,-2.2147,-2.2171,-2.2196,-2.2212,-2.2212,-2.2228,-2.2217,-2.2254,-2.222,-2.2271,-2.224,-2.2254,-2.2258,-2.226,-2.2261,-2.2222,-2.2279,-2.2381,-2.239,-2.2264,-2.2263,-2.2262,0,-2.2071,-2.2117,-2.2162,-2.2172,-2.2189,-2.221,-2.2218,-2.2231,-2.2248,-2.2269,-2.2279,-2.2304,-2.2317,-2.2337,-2.2332,-2.2308,-2.2383,-2.2348,-2.2382,-2.2382,-2.2397,-2.2396,-2.25,-2.241,-2.241,-2.241,-2.2409,0,-2.2156,-2.2196,-2.2192,-2.2219,-2.2264,-2.2256,-2.23,-2.2305,-2.2317,-2.2344,-2.2328,-2.2354,-2.2347,-2.2372,-2.2369,-2.2409,-2.2416,-2.2416,-2.2414,-2.2416,-2.2416,-2.2424,-2.2418,-2.2412,-2.2412,-2.2411,-2.2411,0,-2.2237,-2.2236,-2.2283,-2.2294,-2.2298,-2.233,-2.2339,-2.2364,-2.2365,-2.24,-2.2407,-2.2409,-2.2437,-2.2435,-2.2467,-2.2465,-2.2515,-2.2509,-2.2509,-2.2507,-2.254,-2.2536,-2.2651,-2.2665,-2.2568,-2.2569,-2.2569,0,-2.2291,-2.2321,-2.2335,-2.2352,-2.2361,-2.2389,-2.2405,-2.2398,-2.2415,-2.2435,-2.2457,-2.2484,-2.2505,-2.2552,-2.2555,-2.2579,-2.2572,-2.2611,-2.2576,-2.2576,-2.257,-2.2567,-2.2569,-2.2617,-2.2618,-2.2619,-2.262,0,-2.2384,-2.2382,-2.2406,-2.2429,-2.2449,-2.2467,-2.2483,-2.2498,-2.2493,-2.2513,-2.2541,-2.2558,-2.259,-2.2616,-2.2639,-2.2646,-2.2632,-2.2631,-2.264,-2.2641,-2.2639,-2.2638,-2.2525,-2.2628,-2.2627,-2.2627,-2.2626,-2.2626,-2.2452,-2.2477,-2.249,-2.2517,-2.2528,-2.2543,-2.2567,-2.257,-2.2594,-2.2619,-2.2614,-2.2646,-2.2659,-2.2688,-2.2697,-2.2721,-2.2707,-2.272,-2.2723,-2.2726,-2.2728,-2.2637,-2.2726,-2.2725,-2.2725,-2.2725,-2.2725,0,-2.2542,-2.2549,-2.2574,-2.2597,-2.2617,-2.2602,-2.2619,-2.2637,-2.2665,-2.2679,-2.27,-2.2731,-2.2756,-2.2762,-2.2785,-2.2803,-2.2797,-2.2809,-2.2807,-2.2808,-2.2741,-2.273,-2.2814,-2.2814,-2.2814,-2.2814,-2.2814,-2.2814,-2.2592,-2.2633,-2.2631,-2.2677,-2.2684,-2.2714,-2.2725,-2.2739,-2.2749,-2.2785,-2.2806,-2.2809,-2.2819,-2.2842,-2.2864,-2.2865,-2.2873,-2.2888,-2.2886,-2.2822,-2.2813,-2.2805,-2.2794,-2.289,-2.2891,-2.2951,-2.2951,-2.2952]},{"header":{"parameterUnit":"m.s-1","parameterCategory":1,"la1":30.2991,"la2":30.254,"lo1":-89.0895,"lo2":-89.0444,"dy":0.0017,"dx":0.0017,"nx":28,"ny":28,"refTime":"2025-01-10T09:00:00:Z","depth":0,"parameterNumber":3,"parameterNumberName":"V-component_of_WINDS"},"data":[0,0,0,0,0,0,0,0,0,0,0,0,0,0,0,0,0,0,0,0,0,0,0,0,0,0,0,0,0,0,0,0,0,0,0,0,0,0,0,0,0,0,0,0,0,0,0,0,0,0,0,0,0,0,0,0,0,0,-0.1758,-0.1758,0,-0.1762,-0.1763,-0.1763,-0.1791,-0.1792,-0.1793,-0.1793,-0.1797,-0.1797,-0.1796,0,0,0,0,0,0,0,0,0,0,0,0,0,-0.1773,-0.1773,-0.1758,-0.1758,-0.1758,-0.1762,-0.1763,-0.1763,-0.1791,-0.1792,-0.1793,-0.1794,-0.1798,-0.1797,-0.1796,0,0,0,0,0,0,0,0,0,0,0,0,0,-0.1771,-0.1773,-0.1758,-0.1773,-0.1774,-0.1762,-0.1763,-0.1763,-0.1791,-0.1792,-0.1793,-0.1794,-0.1798,-0.1797,-0.1796,-0.177,0,0,-0.1794,-0.1793,0,0,0,0,0,0,0,0,-0.1771,-0.1771,-0.1771,-0.1772,-0.1773,-0.1777,-0.177,-0.1765,-0.1791,-0.1785,-0.1793,-0.1794,-0.179,-0.179,-0.1788,-0.1771,-0.1771,-0.1794,-0.1793,-0.1793,-0.1793,0,0,0,0,0,0,0,-0.1771,-0.1771,-0.176,-0.1771,-0.1772,-0.1779,-0.178,-0.1769,-0.1781,-0.1785,-0.1787,-0.1787,-0.1791,-0.1789,-0.1789,-0.1771,-0.1794,-0.1793,-0.1793,-0.1792,-0.1732,-0.1731,0,0,0,0,0,0,-0.177,-0.177,-0.176,-0.176,-0.1775,-0.1778,-0.1779,-0.1775,-0.1782,-0.1784,-0.1787,-0.1789,-0.179,-0.179,-0.1789,-0.1759,-0.1793,-0.1792,-0.1792,-0.1733,-0.1731,-0.173,0,0,0,0,0,0,-0.177,-0.1768,-0.1759,-0.1766,-0.1765,-0.1777,-0.1772,-0.1775,-0.1773,-0.1783,-0.1785,-0.1782,-0.1791,-0.179,-0.1775,-0.1759,-0.1792,-0.1791,-0.1734,-0.1732,-0.1731,-0.1698,0,0,0,0,0,0,-0.177,-0.1768,-0.1759,-0.1765,-0.1765,-0.1745,-0.1771,-0.1774,-0.1771,-0.1774,-0.1779,-0.1781,-0.1791,-0.1776,-0.1774,-0.1759,-0.179,-0.1736,-0.1733,-0.1731,-0.17,-0.1695,-0.1691,0,0,0,0,0,-0.1771,-0.1749,-0.1758,-0.1756,-0.1753,-0.1744,-0.1744,-0.1756,-0.177,-0.176,-0.1767,-0.1781,-0.1761,-0.1774,-0.1772,-0.1756,-0.1737,-0.1734,-0.1731,-0.1703,-0.1696,-0.1691,0,0,0,0,0,0,-0.174,-0.175,-0.176,-0.174,-0.1741,-0.1749,-0.1737,-0.1749,-0.1746,-0.1749,-0.1765,-0.1765,-0.1748,-0.1751,-0.1765,-0.1731,-0.1751,-0.1748,-0.173,-0.1724,-0.1719,-0.1719,-0.179,0,0,0,0,0,-0.1731,-0.1724,-0.1733,-0.1714,-0.1714,-0.1726,-0.1722,-0.1732,-0.1733,-0.1734,-0.1739,-0.1739,-0.1733,-0.1729,-0.1724,-0.1701,-0.1702,-0.1689,-0.1685,-0.1681,-0.1678,-0.1665,-0.1659,-0.1722,-0.1722,-0.1722,0,0,-0.1713,-0.1717,-0.1711,-0.1708,-0.171,-0.1701,-0.1726,-0.1716,-0.1709,-0.1732,-0.1718,-0.1722,-0.1723,-0.1704,-0.1696,-0.1706,-0.1661,-0.1678,-0.1674,-0.1673,-0.1662,-0.1656,-0.1651,-0.172,-0.172,-0.1721,0,0,-0.1674,-0.1677,-0.1662,-0.1663,-0.1665,-0.1673,-0.1669,-0.1675,-0.1679,-0.1665,-0.1681,-0.1674,-0.1663,-0.1664,-0.1663,-0.1624,-0.1637,-0.1622,-0.1597,-0.1584,-0.1579,-0.1575,-0.1561,-0.1555,-0.1619,-0.1619,-0.1619,0,-0.165,-0.1638,-0.1652,-0.1641,-0.1639,-0.166,-0.1644,-0.1644,-0.1645,-0.1643,-0.1655,-0.1641,-0.1644,-0.1625,-0.1615,-0.1614,-0.161,-0.1621,-0.1579,-0.1575,-0.1571,-0.1557,-0.1552,-0.1617,-0.1617,-0.1617,-0.1618,0,-0.1609,-0.16,-0.1587,-0.1587,-0.1584,-0.157,-0.1582,-0.1577,-0.1587,-0.1593,-0.1578,-0.1582,-0.1578,-0.1575,-0.1584,-0.1556,-0.1563,-0.1576,-0.1597,-0.1563,-0.155,-0.1545,-0.1614,-0.1615,-0.1616,-0.1616,0,0,-0.1551,-0.1559,-0.1554,-0.1554,-0.1558,-0.1551,-0.1538,-0.1534,-0.1529,-0.1529,-0.1519,-0.1509,-0.1522,-0.152,-0.153,-0.1519,-0.1488,-0.1535,-0.1535,-0.1525,-0.1456,-0.1445,-0.1439,-0.1497,-0.1496,-0.1495,-0.1456,0,-0.1513,-0.1492,-0.1504,-0.1481,-0.1473,-0.1492,-0.1481,-0.1482,-0.1488,-0.1481,-0.1488,-0.148,-0.1498,-0.1497,-0.1488,-0.1493,-0.1474,-0.1497,-0.1486,-0.1486,-0.1484,-0.1433,-0.1421,-0.1384,-0.1451,-0.145,-0.145,0,-0.1466,-0.1463,-0.1439,-0.1445,-0.1442,-0.1432,-0.1429,-0.1423,-0.1424,-0.1429,-0.1427,-0.144,-0.1427,-0.1448,-0.1431,-0.1446,-0.1443,-0.1445,-0.1444,-0.1443,-0.1465,-0.1429,-0.1373,-0.1367,-0.1442,-0.1443,-0.1443,0,-0.1425,-0.1416,-0.14,-0.1399,-0.1406,-0.1398,-0.14,-0.1403,-0.1399,-0.1397,-0.1395,-0.1391,-0.1389,-0.1385,-0.1396,-0.141,-0.1377,-0.1399,-0.1381,-0.138,-0.1372,-0.1372,-0.1313,-0.1371,-0.1371,-0.1371,-0.1371,0,-0.1381,-0.1365,-0.1382,-0.1372,-0.1355,-0.1369,-0.1352,-0.1356,-0.1358,-0.1349,-0.1366,-0.1358,-0.1373,-0.1366,-0.1374,-0.1359,-0.1358,-0.1361,-0.1363,-0.1359,-0.1358,-0.1356,-0.1359,-0.137,-0.137,-0.1371,-0.1371,0,-0.1332,-0.1342,-0.1326,-0.1333,-0.1335,-0.1322,-0.1328,-0.1319,-0.1326,-0.1314,-0.1313,-0.1323,-0.1316,-0.1326,-0.132,-0.1326,-0.1304,-0.131,-0.1303,-0.1305,-0.1285,-0.1287,-0.1222,-0.1214,-0.1278,-0.1277,-0.1277,0,-0.1302,-0.1291,-0.1297,-0.1292,-0.1293,-0.1286,-0.1282,-0.1296,-0.1292,-0.1293,-0.1284,-0.1278,-0.1273,-0.126,-0.1267,-0.1262,-0.1268,-0.1246,-0.1268,-0.1264,-0.1267,-0.1267,-0.1266,-0.1242,-0.1241,-0.124,-0.124,0,-0.1249,-0.1255,-0.125,-0.1246,-0.1242,-0.1239,-0.1239,-0.1234,-0.1248,-0.1243,-0.1235,-0.1232,-0.1225,-0.1219,-0.1216,-0.1218,-0.1231,-0.1233,-0.1228,-0.1223,-0.1219,-0.1221,-0.129,-0.1234,-0.1235,-0.1235,-0.1235,-0.1236,-0.1209,-0.1199,-0.1202,-0.1195,-0.1196,-0.1194,-0.1186,-0.1192,-0.1186,-0.1182,-0.1191,-0.1181,-0.1183,-0.118,-0.118,-0.1173,-0.1182,-0.1176,-0.1174,-0.1172,-0.1168,-0.1221,-0.1172,-0.1172,-0.1172,-0.1173,-0.1173,0,-0.1156,-0.1158,-0.1152,-0.115,-0.1145,-0.1158,-0.1158,-0.1152,-0.1144,-0.1144,-0.114,-0.1131,-0.1125,-0.1131,-0.1126,-0.1119,-0.1124,-0.1117,-0.1117,-0.1117,-0.116,-0.1165,-0.1112,-0.1112,-0.1112,-0.1112,-0.1112,-0.1112,-0.1127,-0.1112,-0.1118,-0.1102,-0.1105,-0.1096,-0.1094,-0.1093,-0.1094,-0.1083,-0.1078,-0.1082,-0.1085,-0.108,-0.1075,-0.1077,-0.1074,-0.1064,-0.1068,-0.1108,-0.1114,-0.112,-0.1124,-0.1064,-0.1063,-0.1026,-0.1025,-0.1025]}]]